Hourly Weather Roundup
Issued by NWS Central Illinois

Home | Current Version | Previous Version | Text Only | Print | Product List | Glossary On
Versions: 1 2 3 4 5 6 7 8 9 10 11 12 13 14 15 16 17 18 19 20 21 22 23 24 25 26 27 28 29 30 31 32 33 34 35 36 37 38 39 40 41 42 43 44 45 46 47 48 49 50
000
NZUS43 KILX 200610
HWRILX

AREA WEATHER ROUNDUP
NATIONAL WEATHER SERVICE, LINCOLN IL
100 AM CDT WED AUG 20 2014


CITY           SKY/WX    TMP DP  RH WIND       PRES   REMARKS
BLOOMINGTON    FAIR      69  66  90 SW6       29.86S
CHAMPAIGN      FAIR      66  65  96 W5        29.84F
6HR MIN TEMP:  66; 6HR MAX TEMP:  79;

DECATUR        LGT RAIN  75  71  87 W6        29.84S
6HR MIN TEMP:  72; 6HR MAX TEMP:  82; 6HR PCP: TRACE;

FLORA          FAIR      71  70  98 CALM      29.86S
6HR MIN TEMP:  70; 6HR MAX TEMP:  81;

GALESBURG      FAIR      63  61  95 CALM      29.84S FOG
JACKSONVILLE   FAIR      73  71  95 N6        29.85S
6HR MIN TEMP:  73; 6HR MAX TEMP:  82;

LACON          FAIR      67  64  91 CALM      29.82S
6HR MIN TEMP:  67; 6HR MAX TEMP:  81;

LAWRENCEVILLE  FAIR      75  73  93 W5        29.85R
6HR MIN TEMP:  74; 6HR MAX TEMP:  83;

LITCHFIELD     FAIR      70  70 100 CALM      29.85S FOG
$$


CITY           SKY/WX    TMP DP  RH WIND       PRES   REMARKS
LINCOLN        FAIR      71  68  90 CALM      29.82R
6HR MIN TEMP:  71; 6HR MAX TEMP:  82;

MACOMB         FAIR      66  65  99 CALM      29.86F FOG
MATTOON        FAIR      73  69  87 SW5       29.84S
6HR MIN TEMP:  72; 6HR MAX TEMP:  82;

MT CARMEL AP   FAIR      73  72  94 CALM      29.85R FOG
OLNEY-NOBLE AP FAIR      70  70 100 CALM      29.86R
PARIS          FAIR      70  70  99 CALM      29.85R
6HR MIN TEMP:  70; 6HR MAX TEMP:  81;

PEORIA         FAIR      71  67  87 CALM      29.84R
6HR MIN TEMP:  71; 6HR MAX TEMP:  82;

PONTIAC        FAIR      70  68  94 CALM      29.82S
RANTOUL        FAIR      72  67  84 W6        29.84F
6HR MIN TEMP:  71; 6HR MAX TEMP:  80;

ROBINSON       FAIR      75  74  96 SW5       29.86R
6HR MIN TEMP:  73; 6HR MAX TEMP:  83;

SPRINGFIELD    FAIR      70  68  93 CALM      29.84S
6HR MIN TEMP:  69; 6HR MAX TEMP:  83;

TAYLORVILLE    FAIR      66  66 100 CALM      29.84F FOG
$$

...REGIONAL REPORTS...


CITY           SKY/WX    TMP DP  RH WIND       PRES   REMARKS
CHICAGO O`HARE FAIR      70  62  76 W6        29.79R
KANKAKEE       FAIR      67  66  96 W6        29.82S
MOLINE         FAIR      66  63  90 CALM      29.82S
MOUNT VERNON   FAIR      70  64  83 CALM      29.86S
PITTSFIELD     FAIR      74  69  85 CALM      29.85S
QUINCY         FAIR      71  69  93 CALM      29.84S
ROCKFORD       FAIR      68  62  81 CALM      29.83R
$$


CITY           SKY/WX    TMP DP  RH WIND       PRES   REMARKS
BURLINGTON     FAIR      66  65  96 CALM      29.84S
CEDAR RAPIDS   FAIR      63  63 100 S5        29.83R
DES MOINES     FAIR      73  66  78 SE3       29.82S
KIRKSVILLE     FAIR      70  68  93 CALM      29.85S
OTTUMWA        FAIR      66  64  93 E3        29.83S
ST LOUIS       FAIR      76  71  85 CALM      29.85
$$


CITY           SKY/WX    TMP DP  RH WIND       PRES   REMARKS
TERRE HAUTE    FAIR      69  67  93 CALM      29.85R
EVANSVILLE     FAIR      75  68  78 SW3       29.87R
INDIANAPOLIS   CLOUDY    67  63  87 SW7       29.84R
LAFAYETTE      FAIR      65  65 100 CALM      29.82R
MADISON        FAIR      64  61  90 CALM      29.80R
MILWAUKEE      FAIR      68  63  84 SW3       29.77S
$$





USA.gov is the U.S. government's official web portal to all federal, state and local government web resources and services.